Lid_Strength_Index
12 11 11 11 12 11 13 12 16 13 13 10 9 10 9 9 8 8 8 8 7 8 8 7 7 7 7 8 7 7 7 6 6 6 5 5 5 4 3 2 2 2 2 2
13 11 11 13 11 11 11 11 12 11 12 9 8 8 8 8 8 8 8 7 7 7 7 7 7 8 8 8 7 7 7 7 6 5 5 5 4 4 3 3 2 2 3 3
16 12 12 15 12 12 11 10 11 14 11 9 9 9 9 8 8 8 7 7 7 6 7 7 7 8 8 7 7 7 7 6 6 5 5 5 4 4 3 3 3 3 3 4
16 14 20 12 9 9 11 10 9 10 10 9 9 8 8 8 8 8 7 7 7 7 7 7 8 7 7 7 7 7 7 7 8 6 6 5 4 4 5 3 3 3 5 6
17 17 13 12 11 12 13 13 9 10 9 8 8 9 8 7 6 6 6 7 7 7 7 8 8 8 8 8 8 9 9 9 8 7 7 5 4 5 3 4 4 5 5 8
19 21 21 13 9 7 8 16 8 8 9 9 9 12 9 6 5 6 6 6 7 8 8 9 9 9 10 11 11 11 10 9 8 7 6 5 5 4 4 4 5 6 7 8
15 17 14 10 7 6 15 13 8 8 8 8 10 8 6 5 6 7 7 8 9 10 11 11 12 11 12 11 12 11 10 9 8 7 6 5 3 5 5 6 6 8 9 9
16 17 19 7 8 13 10 8 7 7 7 7 7 6 6 7 8 9 10 11 12 12 13 12 12 12 13 12 12 11 10 9 8 6 5 3 5 5 6 7 9 10 11 11
13 14 8 7 8 6 6 7 7 7 6 7 8 8 8 10 11 12 13 13 12 12 13 12 12 12 13 12 11 11 10 9 7 6 4 5 6 7 8 8 10 10 11 11
12 10 8 7 6 6 5 6 6 6 7 8 9 9 11 11 13 14 13 13 12 13 13 12 11 12 12 12 11 10 9 8 6 7 7 7 7 7 9 10 11 11 11 12
11 9 8 7 7 6 6 6 7 7 8 9 11 12 12 14 14 14 13 13 12 12 13 13 10 11 11 11 10 10 7 8 9 10 10 11 10 9 10 10 10 10 11 10
12 9 9 9 7 6 7 8 9 10 11 11 12 13 13 14 14 14 13 12 11 12 11 10 10 10 9 8 9 10 10 10 10 10 10 10 11 12 12 11 11 11 10 10
9 7 7 7 8 8 9 10 9 11 12 13 13 13 14 14 13 12 12 11 11 11 10 11 11 11 10 10 9 10 11 11 11 11 11 11 12 12 14 12 11 12 11 11
7 7 9 9 10 9 10 9 11 12 13 13 14 14 13 13 13 12 11 11 11 11 11 11 12 11 10 9 10 10 10 10 11 11 11 11 11 12 12 13 14 12 11 11
7 8 9 9 9 10 10 11 13 14 14 14 14 13 12 14 12 12 11 10 10 11 11 11 11 11 10 10 10 10 10 11 11 11 11 12 12 12 12 12 12 12 11 11
9 9 9 10 11 11 12 13 14 14 15 15 14 13 12 12 11 11 11 11 12 12 12 11 11 10 10 10 11 11 11 11 11 11 11 12 12 12 11 11 11 11 11 12
11 11 11 12 12 13 13 13 14 15 15 14 13 12 13 12 12 12 12 11 11 11 11 12 12 11 10 11 11 11 11 11 12 12 12 11 11 12 12 12 12 13 13 14
9 10 10 11 13 13 13 14 14 14 14 12 12 12 13 13 13 13 13 12 12 12 11 11 11 11 12 12 12 12 12 12 12 12 12 12 12 12 12 12 13 13 14 14
9 10 10 11 12 13 14 14 13 13 12 13 13 13 13 12 12 12 12 13 13 14 13 12 12 12 12 12 12 12 12 12 12 12 12 12 12 12 13 14 14 13 12 11
10 10 11 12 12 13 13 13 12 13 12 12 12 13 13 12 12 12 12 14 13 13 12 12 12 12 12 12 12 12 12 12 12 12 12 13 13 13 12 12 11 12 12 12
10 10 12 13 13 13 13 12 12 13 12 12 13 13 12 12 11 11 13 14 12 11 12 12 12 12 12 12 11 11 12 12 12 12 11 11 11 11 11 11 12 12 12 12
10 10 12 13 13 13 12 12 12 12 12 12 11 11 12 12 11 12 12 13 12 13 13 12 12 13 12 11 9 10 11 11 10 10 10 11 11 11 11 11 11 11 12 12
10 10 11 12 13 12 12 12 12 12 11 11 11 12 12 12 12 13 13 12 13 13 13 13 14 13 13 10 11 10 9 9 10 10 10 10 10 10 11 11 11 11 12 12
10 10 11 11 12 12 13 12 11 11 11 11 11 11 12 12 12 10 11 11 12 11 10 11 12 13 12 10 9 9 9 9 9 10 10 11 10 10 10 10 11 11 11 12
9 10 11 12 12 12 11 11 11 11 11 11 11 11 11 11 11 11 10 10 11 11 11 13 12 12 9 9 9 9 9 9 9 9 9 9 9 9 9 10 10 11 11 12
9 9 10 10 11 11 11 11 12 11 11 12 11 11 11 11 9 9 9 10 9 10 9 9 9 9 9 9 8 8 9 9 8 8 8 8 9 9 10 10 10 10 10 11
9 10 10 10 10 10 10 11 11 11 11 11 12 11 10 9 9 9 9 9 9 9 9 9 9 9 9 8 8 8 8 8 9 8 8 8 9 9 9 9 10 10 10 10